Location: Poughquag
(41.6090°N, 73.6820°W)
Time: 03:36:36
(UTC-04:00)

S-56A Canister/Altair - Pass Details

Date: 31 May 2020
Orbit: 633 x 2499 km, 38.9° (Epoch: 06 July)

Event Time Altitude Azimuth Distance (km) Brightness Sun altitude
Rises 09:15:42 0° 277° (W) 4,098 10.8 40.9°
Reaches altitude 10° 09:18:08 10° 274° (W) 3,342 10.4 41.3°
Maximum altitude 09:26:46 66° 195° (SSW) 1,879 10.1 42.9°
Drops below altitude 10° 09:39:36 10° 118° (ESE) 4,822 12.5 45.3°
Sets 09:43:51 0° 116° (ESE) 5,994 12.8 46.1°
